Location: Newark
(33.6439°N, 114.9881°W)
Time: 22:16:54
(UTC+00:00)

Envisat - Pass Details

Date: 25 March 2019
Orbit: 764 x 766 km, 98.2° (Epoch: 22 April)

Event Time Altitude Azimuth Distance (km) Brightness Sun altitude
Rises 03:21:11 0° 201° (SSW) 3,218 6.3 -18.6°
Reaches altitude 10° 03:24:00 10° 217° (SW) 2,296 5.7 -19.2°
Maximum altitude 03:27:46 21° 265° (W) 1,670 5.5 -19.9°
Drops below altitude 10° 03:31:34 10° 314° (NW) 2,306 6.4 -20.7°
Sets 03:34:26 0° 330° (NNW) 3,236 7.0 -21.3°
